Flag for China Weather past 2 weeks in Kunming, China

Now
82 °F

Sunny.


Feels Like: 80 °F
Forecast: 58 / 83 °F
Wind: 17 mph from Southwest

Location: Kunming Airport


UV Index: 10 (Very high)

Visibility: 10 mi


Pressure: 30.01 "Hg

Humidity: 20%

Dew point: 37 °F

Location of KunmingLocation

Historic Weather in Kunming

°F

Kunming temperature yesterday

Maximum temperature yesterday: 84 °F (at 4:00 PM)
Minimum temperature yesterday: 55 °F (at 6:00 AM)
Average temperature yesterday: 71 °F

Past Weeks' High & Low Weather Summary

 TemperatureHumidityPressure
High84 °F (Apr 18, 4:00 PM)94% (Apr 9, 7:00 AM)30.24 "Hg (Apr 9, 7:00 AM)
Low52 °F (Apr 7, 7:00 AM)12% (Apr 12, 6:00 PM)29.95 "Hg (Apr 16, 4:00 PM)
Average67 °F38%30.09 "Hg
* Reported Apr 6 5:00 PM — Apr 21 5:00 PM, Kunming, Weather by CustomWeather, © 2014

Note: Actual official high and low records may vary slightly from our data, if they occured in-between our weather recording intervals... More about our weather records

Advertising

Historic Weather Conditions — Data for Previous 24 hours

 ConditionsComfort  
Time TempWeatherWind HumidityBarometerVisibility
5:00 PM
Apr 21
84 °FSunny.20 mph14%29.98 "Hg10 mi
4:00 PM84 °FPassing clouds.22 mph15%30.01 "HgN/A
3:00 PM84 °FPassing clouds.20 mph19%30.01 "HgN/A
2:00 PM81 °FPassing clouds.17 mph21%30.04 "HgN/A
1:00 PM81 °FPassing clouds.20 mph20%30.09 "HgN/A
12:00 PM79 °FSunny.22 mph23%30.09 "Hg10 mi
11:00 AM75 °FSunny.17 mph27%30.12 "Hg10 mi
10:00 AM73 °FSunny.22 mph29%30.12 "Hg10 mi
9:00 AM68 °FSunny.17 mph33%30.12 "Hg10 mi
8:00 AM66 °FSunny.13 mph35%30.09 "Hg10 mi
7:00 AM64 °FSunny.20 mph37%30.07 "Hg10 mi
6:00 AM63 °FClear.15 mph39%30.04 "Hg10 mi
5:00 AM64 °FClear.13 mph40%30.04 "Hg10 mi
4:00 AM66 °FClear.17 mph35%30.04 "Hg10 mi
3:00 AM66 °FClear.17 mph37%30.04 "Hg10 mi
2:00 AM66 °FClear.15 mph40%30.04 "Hg10 mi
1:00 AM68 °FClear.17 mph35%30.04 "Hg10 mi
12:00 AM70 °FClear.20 mph33%30.04 "Hg10 mi
11:00 PM
Apr 20
70 °FClear.20 mph35%30.07 "Hg10 mi
10:00 PM72 °FClear.20 mph33%30.04 "Hg10 mi
9:00 PM73 °FClear.20 mph31%30.01 "Hg10 mi
8:00 PM75 °FClear.17 mph27%29.98 "Hg10 mi
7:00 PM79 °FSunny.22 mph24%29.95 "Hg10 mi
6:00 PM81 °FSunny.26 mph21%29.95 "Hg10 mi
Weather by CustomWeather, © 2014

See weather overview